DECAYED

CZ-6A DEB, 61282 (Decayed)

Orbit data source: Space-Track

CZ-6A DEB, 61282 was space debris in LEO originally from a launch on Tue, 06 Aug 2024 UTC launched from the Taiyaun Space Center, China (TSC). Debris objects in space refer to the collection of defunct objects orbiting the Earth. Examples of debris include non-operational satellites, rocket bodies, and fragments generated from explosions, collisions, or faulty payload assembly.

Loading next visibility...
Identifier
61282, 2024-140ST
Orbit
Decayed
Country
Flag of CNCN / PRC
Related business
Manufacturer
SAST
Mission
Decayed spacecraft
Bus & Motor
Unknown
Mass
Unknown
Launch date (UTC)
2024-08-06 (2 years ago)
Launch vehicle
Unknown
Launch site
Taiyaun Space Center, China (TSC)
Object type
Payload
Rocket body
Debris
Shape & HBR
Unknown shape, 1.1 m
Radar Cross Section
Medium (>0.1 m² and <1 m²)

Expand to show TLE details & history
Last TLE update: 1 year ago

TLE from 1 year ago
0 CZ-6A DEB
1 61282U 24140ST  25119.39844609  .07831353  13135+0  27292-1 0  9996
2 61282  89.2514 327.8483 0006576 204.6302 155.4672 15.96070450 36529
Epoch: 2025-04-29T09:33Z
TLE epoch observation values (Epoch: 2025-04-29T09:33:45.742Z)
Latitude
0.00003°
Longitude
-33.19098°
Altitude
292.623 km
Speed
7.73 km/s
True Right ascension
21h 51m 23s
True Declination
0° 00' 00"
Sunlit
Object was in daylight at epoch
Visualization orbit readout
Latitude
Unknown
Longitude
Unknown
Altitude
Unknown
Speed
Unknown
Apparent Right ascension
Unknown
Apparent Declination
Unknown
Sunlit
N/A
Visualization observer readout
Local Sidereal Time
07:24:09
Azimuth
Unknown
Elevation
Unknown
Doppler factor
Unknown
Orbital elements
Apogee altitude
286.415 km
Perigee altitude
277.656 km
Semi-major axis
6,660.173 km
Eccentricity
0.00066
Inclination
89.2514°
RAAN
327.8483°
Arg. of periapsis
204.6302°
True anomaly
155.49847°
Mean anomaly
155.4672°
Eccentric anomaly
155.48283°
Mean motion
3.99314 °/min
Orbital period
90.15 mins
BSTAR
0.027292
Loading maneuver chart data...
Computing Atmospheric mass density...
Loading historical data...
Loading historical data...
Loading historical data...
Loading historical data...
Loading historical data...
Loading historical data...
Loading historical data...

Documentation

Showing up to 5 results
|